• In Czech Republic
  • List of Countries
  • For 7 days
  • Water Temperature
  • Satellite Maps
  • Weather Map
  • Weather Widgets
  • user-avatar
    Login

    Hourly Weather Liverpool

    Today, 11 December, Monday

    Time Temperature Precipitation Wind Pressure Humidity
    00:00 -2°C° 0 mm 3 mps 737 mmHg 85%
    01:00 -2°C° 0 mm 3 mps 737 mmHg 85%
    02:00 -2°C° 0 mm 3 mps 738 mmHg 85%
    03:00 -2°C° 0 mm 3 mps 738 mmHg 85%
    04:00 -2°C° 0 mm 3 mps 738 mmHg 83%
    05:00 -2°C° 0 mm 3 mps 738 mmHg 82%
    06:00 -2°C° 0 mm 3 mps 739 mmHg 80%
    07:00 -2°C° 0 mm 3 mps 739 mmHg 79%
    08:00 -2°C° 0 mm 3 mps 739 mmHg 77%
    09:00 -3°C° 0 mm 2 mps 740 mmHg 75%
    10:00 -2°C° 0 mm 2 mps 740 mmHg 73%
    11:00 -1°C° 0 mm 2 mps 741 mmHg 72%
    12:00 +2°C° 0 mm 1 mps 741 mmHg 71%
    13:00 +1°C° 0 mm 2 mps 741 mmHg 72%
    14:00 +1°C° 0 mm 2 mps 742 mmHg 73%
    15:00 +1°C° 0 mm 2 mps 742 mmHg 75%
    16:00 0°C° 0 mm 3 mps 743 mmHg 77%
    17:00 0°C° 0 mm 3 mps 744 mmHg 79%
    18:00 -1°C° 0 mm 4 mps 744 mmHg 81%
    19:00 0°C° 0 mm 3 mps 745 mmHg 82%
    20:00 -1°C° 0 mm 3 mps 746 mmHg 83%
    21:00 -1°C° 0 mm 3 mps 747 mmHg 84%
    22:00 -1°C° 0 mm 3 mps 747 mmHg 85%
    23:00 -1°C° 0 mm 3 mps 748 mmHg 85%

    Tomorrow, 12 December, Tuesday

    Time Temperature Precipitation Wind Pressure Humidity
    00:00 -1°C° 0 mm 2 mps 748 mmHg 86%
    01:00 -1°C° 0 mm 2 mps 749 mmHg 86%
    02:00 -1°C° 0 mm 2 mps 750 mmHg 86%
    03:00 -1°C° 0 mm 2 mps 750 mmHg 86%
    04:00 -1°C° 0 mm 2 mps 751 mmHg 87%
    05:00 -1°C° 0 mm 2 mps 751 mmHg 87%
    06:00 +1°C° 0 mm 2 mps 751 mmHg 88%
    07:00 +1°C° 0 mm 2 mps 752 mmHg 88%
    08:00 +1°C° 0 mm 2 mps 752 mmHg 88%
    09:00 +1°C° 0 mm 2 mps 753 mmHg 88%
    10:00 +1°C° 0 mm 2 mps 753 mmHg 88%
    11:00 +2°C° 0 mm 2 mps 753 mmHg 88%
    12:00 +2°C° 0 mm 3 mps 753 mmHg 88%
    13:00 +2°C° 0 mm 3 mps 753 mmHg 89%
    14:00 +1°C° 0 mm 4 mps 753 mmHg 90%
    15:00 +1°C° 0 mm 4 mps 753 mmHg 91%
    16:00 +1°C° 0 mm 4 mps 753 mmHg 91%
    17:00 +1°C° 0 mm 4 mps 753 mmHg 91%
    18:00 +1°C° 0 mm 4 mps 753 mmHg 91%
    19:00 +1°C° 0.2 mm 5 mps 752 mmHg 92%
    20:00 +1°C° 0.2 mm 6 mps 752 mmHg 93%
    21:00 +1°C° 0.2 mm 6 mps 751 mmHg 94%
    22:00 +2°C° 0.3 mm 6 mps 751 mmHg 95%
    23:00 +2°C° 0.3 mm 7 mps 750 mmHg 95%

    Day after tomorrow, 13 December, Wednesday

    Time Temperature Precipitation Wind Pressure Humidity
    00:00 +3°C° 0.3 mm 7 mps 750 mmHg 96%
    01:00 +3°C° 0.3 mm 7 mps 750 mmHg 94%
    02:00 +3°C° 0.3 mm 6 mps 749 mmHg 92%
    03:00 +3°C° 0.3 mm 6 mps 749 mmHg 90%
    04:00 +3°C° 0.4 mm 6 mps 749 mmHg 90%
    05:00 +3°C° 0.4 mm 7 mps 749 mmHg 90%
    06:00 +3°C° 0.4 mm 7 mps 749 mmHg 90%
    07:00 +3°C° 0.2 mm 7 mps 749 mmHg 90%
    08:00 +3°C° 0.2 mm 7 mps 749 mmHg 89%
    09:00 +3°C° 0.2 mm 7 mps 749 mmHg 88%
    10:00 +3°C° 0.2 mm 7 mps 749 mmHg 85%
    11:00 +4°C° 0.2 mm 8 mps 749 mmHg 83%
    12:00 +4°C° 0.2 mm 8 mps 749 mmHg 80%
    13:00 +4°C° 0.3 mm 8 mps 749 mmHg 79%
    14:00 +2°C° 0.3 mm 9 mps 749 mmHg 77%
    15:00 +2°C° 0.3 mm 9 mps 749 mmHg 76%
    16:00 +2°C° 0.3 mm 9 mps 749 mmHg 75%
    17:00 +1°C° 0.3 mm 8 mps 749 mmHg 75%
    18:00 +1°C° 0.3 mm 8 mps 749 mmHg 74%
    19:00 +1°C° 0 mm 8 mps 749 mmHg 75%
    20:00 +2°C° 0 mm 7 mps 748 mmHg 77%
    21:00 +2°C° 0 mm 7 mps 747 mmHg 78%
    22:00 +1°C° 0.5 mm 9 mps 746 mmHg 78%
    23:00 +2°C° 0.5 mm 11 mps 744 mmHg 79%

    14 December, Thursday

    Time Temperature Precipitation Wind Pressure Humidity
    00:00 +3°C° 0.5 mm 12 mps 742 mmHg 80%
    01:00 +3°C° 1.6 mm 12 mps 741 mmHg 79%
    02:00 +3°C° 1.6 mm 11 mps 740 mmHg 78%
    03:00 +3°C° 1.6 mm 10 mps 739 mmHg 77%
    04:00 +2°C° 0.2 mm 9 mps 739 mmHg 76%
    05:00 +1°C° 0.2 mm 9 mps 739 mmHg 75%
    06:00 +1°C° 0.2 mm 8 mps 739 mmHg 74%
    07:00 0°C° 0.4 mm 8 mps 739 mmHg 75%
    08:00 0°C° 0.4 mm 8 mps 739 mmHg 75%
    09:00 0°C° 0.4 mm 8 mps 739 mmHg 75%
    10:00 0°C° 0.3 mm 8 mps 739 mmHg 75%
    11:00 +1°C° 0.3 mm 8 mps 739 mmHg 75%
    12:00 +1°C° 0.3 mm 8 mps 739 mmHg 75%
    13:00 +1°C° 0.3 mm 8 mps 739 mmHg 76%
    14:00 +1°C° 0.3 mm 8 mps 739 mmHg 77%
    15:00 +1°C° 0.3 mm 8 mps 739 mmHg 77%
    16:00 +2°C° 0.5 mm 7 mps 739 mmHg 79%
    17:00 +2°C° 0.5 mm 7 mps 739 mmHg 80%
    18:00 +2°C° 0.5 mm 7 mps 739 mmHg 81%
    19:00 +2°C° 0.9 mm 6 mps 740 mmHg 83%
    20:00 +2°C° 0.9 mm 5 mps 740 mmHg 85%
    21:00 +2°C° 0.9 mm 5 mps 740 mmHg 87%
    22:00 +1°C° 0.2 mm 5 mps 741 mmHg 84%
    23:00 +1°C° 0.2 mm 5 mps 741 mmHg 81%

    15 December, Friday

    Time Temperature Precipitation Wind Pressure Humidity
    00:00 +1°C° 0.2 mm 5 mps 742 mmHg 78%
    01:00 +1°C° 0.3 mm 5 mps 742 mmHg 79%
    02:00 +1°C° 0.3 mm 5 mps 743 mmHg 80%
    03:00 0°C° 0.3 mm 5 mps 744 mmHg 81%
    04:00 0°C° 0.2 mm 5 mps 745 mmHg 80%
    05:00 -1°C° 0.2 mm 6 mps 745 mmHg 79%
    06:00 +1°C° 0.2 mm 6 mps 746 mmHg 78%
    07:00 -1°C° 0 mm 6 mps 747 mmHg 77%
    08:00 -1°C° 0 mm 6 mps 748 mmHg 77%
    09:00 -1°C° 0 mm 6 mps 749 mmHg 76%
    10:00 +1°C° 0 mm 6 mps 749 mmHg 75%
    11:00 +2°C° 0 mm 6 mps 750 mmHg 74%
    12:00 +3°C° 0 mm 6 mps 750 mmHg 74%
    13:00 +3°C° 0 mm 6 mps 751 mmHg 74%
    14:00 +3°C° 0 mm 6 mps 751 mmHg 74%
    15:00 +3°C° 0 mm 6 mps 752 mmHg 75%
    16:00 +2°C° 0 mm 6 mps 753 mmHg 75%
    17:00 +2°C° 0 mm 6 mps 753 mmHg 75%
    18:00 +1°C° 0 mm 6 mps 754 mmHg 76%
    19:00 +1°C° 0 mm 5 mps 755 mmHg 76%
    20:00 +1°C° 0 mm 5 mps 756 mmHg 77%
    21:00 +1°C° 0 mm 5 mps 756 mmHg 77%
    22:00 +1°C° 0 mm 5 mps 757 mmHg 78%
    23:00 0°C° 0 mm 4 mps 757 mmHg 79%

    16 December, Saturday

    Time Temperature Precipitation Wind Pressure Humidity
    00:00 0°C° 0 mm 4 mps 757 mmHg 79%
    01:00 0°C° 0.1 mm 4 mps 758 mmHg 80%
    02:00 0°C° 0.1 mm 4 mps 758 mmHg 81%
    03:00 +1°C° 0.1 mm 3 mps 758 mmHg 82%
    04:00 +1°C° 0.1 mm 3 mps 758 mmHg 82%
    05:00 +1°C° 0.1 mm 3 mps 759 mmHg 83%
    06:00 +1°C° 0.1 mm 3 mps 759 mmHg 83%
    07:00 +2°C° 0.1 mm 2 mps 759 mmHg 84%
    08:00 +2°C° 0.1 mm 2 mps 760 mmHg 84%
    09:00 +2°C° 0.1 mm 2 mps 760 mmHg 84%
    10:00 +2°C° 0.1 mm 2 mps 760 mmHg 83%
    11:00 +3°C° 0.1 mm 2 mps 760 mmHg 82%
    12:00 +4°C° 0.1 mm 2 mps 760 mmHg 80%
    13:00 +4°C° 0 mm 2 mps 760 mmHg 81%
    14:00 +4°C° 0 mm 2 mps 760 mmHg 81%
    15:00 +2°C° 0 mm 3 mps 760 mmHg 82%
    16:00 +3°C° 0 mm 2 mps 761 mmHg 82%
    17:00 +3°C° 0 mm 2 mps 761 mmHg 82%
    18:00 +2°C° 0 mm 2 mps 761 mmHg 82%
    19:00 +2°C° 0.1 mm 2 mps 762 mmHg 82%
    20:00 +2°C° 0.1 mm 2 mps 762 mmHg 82%
    21:00 +2°C° 0.1 mm 2 mps 762 mmHg 81%
    22:00 +2°C° 0 mm 2 mps 762 mmHg 83%
    23:00 +2°C° 0 mm 2 mps 762 mmHg 84%
    Show more